[[{"header":{"parameterUnit":"m.s-1","parameterCategory":1,"la1":30.2991,"la2":30.254,"lo1":-89.0895,"lo2":-89.0444,"dy":0.0017,"dx":0.0017,"nx":28,"ny":28,"refTime":"2024-12-02T09:00:00:Z","depth":0,"parameterNumber":2,"parameterNumberName":"U-component_of_WINDS"},"data":[0,0,0,0,0,0,0,0,0,0,0,0,0,0,0,0,0,0,0,0,0,0,0,0,0,0,0,0,0,0,0,0,0,0,0,0,0,0,0,0,0,0,0,0,0,0,0,0,0,0,0,0,0,0,0,0,0,0,-3.8975,-3.8975,0,-3.8972,-3.8972,-3.8972,-3.8852,-3.8848,-3.8845,-3.8842,-3.8841,-3.8844,-3.8847,0,0,0,0,0,0,0,0,0,0,0,0,0,-3.8878,-3.888,-3.8975,-3.8975,-3.8975,-3.8972,-3.8972,-3.8972,-3.8852,-3.8848,-3.8845,-3.8841,-3.884,-3.8844,-3.8847,0,0,0,0,0,0,0,0,0,0,0,0,0,-3.8902,-3.8881,-3.8975,-3.8915,-3.8909,-3.8972,-3.8972,-3.8972,-3.8853,-3.8848,-3.8844,-3.8839,-3.8839,-3.8843,-3.8847,-3.8968,0,0,-3.8861,-3.8863,0,0,0,0,0,0,0,0,-3.8901,-3.8906,-3.8923,-3.8919,-3.8913,-3.8907,-3.8937,-3.8971,-3.8854,-3.8874,-3.8842,-3.8837,-3.8867,-3.8869,-3.8878,-3.8968,-3.8968,-3.8861,-3.8864,-3.8866,-3.8867,0,0,0,0,0,0,0,-3.8899,-3.8905,-3.8974,-3.8924,-3.8917,-3.8888,-3.8886,-3.8943,-3.8897,-3.8872,-3.8863,-3.8865,-3.8863,-3.8875,-3.8878,-3.8968,-3.8861,-3.8865,-3.8867,-3.8869,-3.9156,-3.9161,0,0,0,0,0,0,-3.8906,-3.8905,-3.8974,-3.8973,-3.8895,-3.8894,-3.8892,-3.8914,-3.8896,-3.8889,-3.8869,-3.8859,-3.887,-3.8873,-3.8877,-3.9017,-3.8865,-3.887,-3.8872,-3.9151,-3.9157,-3.9162,0,0,0,0,0,0,-3.8904,-3.8913,-3.8974,-3.8937,-3.8942,-3.89,-3.8926,-3.8916,-3.8927,-3.8893,-3.8885,-3.8889,-3.8866,-3.8871,-3.8946,-3.9016,-3.8871,-3.8875,-3.9145,-3.9153,-3.916,-3.9299,0,0,0,0,0,0,-3.8902,-3.8913,-3.8958,-3.8939,-3.8945,-3.9043,-3.893,-3.892,-3.8935,-3.8923,-3.891,-3.8903,-3.8863,-3.894,-3.8951,-3.9019,-3.8879,-3.9139,-3.9149,-3.9157,-3.9288,-3.931,-3.933,0,0,0,0,0,-3.8899,-3.8998,-3.8961,-3.897,-3.9,-3.9047,-3.9051,-3.9002,-3.8941,-3.8986,-3.8964,-3.8904,-3.9006,-3.8949,-3.8959,-3.903,-3.9134,-3.9146,-3.9157,-3.9279,-3.9306,-3.9329,0,0,0,0,0,0,-3.9028,-3.8994,-3.8953,-3.9049,-3.9052,-3.9027,-3.9083,-3.9032,-3.9052,-3.904,-3.8978,-3.8976,-3.9062,-3.9053,-3.899,-3.9146,-3.9059,-3.9073,-3.9149,-3.9174,-3.9195,-3.9196,-3.8882,0,0,0,0,0,-3.9067,-3.9108,-3.9076,-3.9164,-3.9168,-3.9125,-3.9144,-3.9106,-3.9106,-3.9107,-3.909,-3.9094,-3.9127,-3.915,-3.9178,-3.9286,-3.9282,-3.934,-3.936,-3.9377,-3.9391,-3.9447,-3.9473,-3.92,-3.92,-3.9199,0,0,-3.915,-3.9136,-3.9166,-3.919,-3.9187,-3.9232,-3.9127,-3.9178,-3.921,-3.9115,-3.9185,-3.9173,-3.9173,-3.9265,-3.9305,-3.9261,-3.9465,-3.9392,-3.9406,-3.941,-3.9462,-3.9488,-3.9511,-3.9207,-3.9206,-3.9205,0,0,-3.9322,-3.9316,-3.9388,-3.9388,-3.9386,-3.9357,-3.9374,-3.9357,-3.9345,-3.9414,-3.9344,-3.9381,-3.9439,-3.9441,-3.9451,-3.9624,-3.9569,-3.9635,-3.9744,-3.98,-3.9821,-3.984,-3.9903,-3.9926,-3.9648,-3.9648,-3.9648,0,-3.9425,-3.9488,-3.9432,-3.9488,-3.9501,-3.9415,-3.9489,-3.9491,-3.9499,-3.951,-3.9459,-3.953,-3.9524,-3.9616,-3.9658,-3.9668,-3.9686,-3.9636,-3.9822,-3.9841,-3.9858,-3.9917,-3.994,-3.9656,-3.9655,-3.9654,-3.9653,0,-3.9615,-3.966,-3.9719,-3.9728,-3.9747,-3.9811,-3.9765,-3.9791,-3.9751,-3.9728,-3.9799,-3.9788,-3.9813,-3.9832,-3.9793,-3.9919,-3.9891,-3.9833,-3.9745,-3.9893,-3.9947,-3.9969,-3.9668,-3.9665,-3.9662,-3.966,0,0,-3.9871,-3.9847,-3.987,-3.9872,-3.9863,-3.9897,-3.9957,-3.9981,-4.0005,-4.0013,-4.0062,-4.0113,-4.0058,-4.0069,-4.003,-4.0079,-4.0218,-4.0014,-4.0013,-4.0053,-4.0356,-4.0401,-4.0428,-4.018,-4.0185,-4.0188,-4.0356,0,-4.0038,-4.014,-4.0091,-4.0199,-4.0239,-4.0159,-4.0211,-4.0212,-4.0191,-4.0223,-4.02,-4.0237,-4.0162,-4.0168,-4.0213,-4.0191,-4.0278,-4.0178,-4.0227,-4.023,-4.0231,-4.0456,-4.0504,-4.0663,-4.0377,-4.0381,-4.0383,0,-4.0248,-4.0264,-4.0376,-4.0359,-4.0374,-4.0422,-4.044,-4.0471,-4.047,-4.0451,-4.0463,-4.0412,-4.0471,-4.0382,-4.0462,-4.0396,-4.0413,-4.0405,-4.041,-4.0414,-4.0316,-4.0467,-4.0713,-4.0737,-4.0416,-4.0413,-4.0411,0,-4.0425,-4.0474,-4.0547,-4.0552,-4.0534,-4.057,-4.0564,-4.0558,-4.0575,-4.059,-4.0601,-4.0623,-4.0636,-4.0655,-4.0611,-4.0551,-4.0698,-4.0606,-4.0685,-4.0686,-4.0721,-4.0719,-4.0974,-4.073,-4.0729,-4.0729,-4.0729,0,-4.0618,-4.069,-4.0626,-4.0671,-4.0749,-4.0692,-4.0771,-4.0756,-4.0752,-4.0793,-4.0724,-4.0764,-4.0704,-4.0739,-4.0705,-4.0777,-4.0783,-4.077,-4.0761,-4.0777,-4.0779,-4.0788,-4.0777,-4.0735,-4.0734,-4.0733,-4.0732,0,-4.0829,-4.0789,-4.0863,-4.084,-4.0835,-4.0894,-4.0874,-4.0915,-4.0889,-4.0942,-4.0952,-4.0912,-4.0948,-4.0907,-4.0941,-4.0918,-4.1015,-4.0989,-4.1016,-4.1009,-4.1091,-4.1084,-4.1361,-4.1395,-4.1129,-4.1131,-4.1133,0,-4.0956,-4.1009,-4.0991,-4.1013,-4.1011,-4.1048,-4.1065,-4.1011,-4.1031,-4.1034,-4.1075,-4.1106,-4.1128,-4.1191,-4.1165,-4.1191,-4.1165,-4.126,-4.1168,-4.1183,-4.1168,-4.1165,-4.1171,-4.1279,-4.1283,-4.1285,-4.1287,0,-4.1185,-4.1162,-4.1189,-4.121,-4.1232,-4.1246,-4.1254,-4.1276,-4.122,-4.1246,-4.1283,-4.13,-4.1334,-4.1366,-4.1384,-4.1378,-4.1325,-4.1316,-4.1336,-4.1354,-4.1368,-4.1363,-4.1068,-4.131,-4.1308,-4.1306,-4.1305,-4.1304,-4.1358,-4.1402,-4.1396,-4.1428,-4.1428,-4.1438,-4.1475,-4.1454,-4.1483,-4.1506,-4.1472,-4.1518,-4.1515,-4.1534,-4.1534,-4.157,-4.1529,-4.1558,-4.1565,-4.1573,-4.1586,-4.1361,-4.1573,-4.1572,-4.1571,-4.1571,-4.157,0,-4.1585,-4.1577,-4.1607,-4.1621,-4.1646,-4.1591,-4.1598,-4.1623,-4.1664,-4.1666,-4.1688,-4.1731,-4.1761,-4.1738,-4.1763,-4.1796,-4.1772,-4.1805,-4.1803,-4.1802,-4.1621,-4.1601,-4.1824,-4.1824,-4.1824,-4.1824,-4.1824,-4.1824,-4.1706,-4.1777,-4.1754,-4.1824,-4.1815,-4.186,-4.1868,-4.1876,-4.1877,-4.1927,-4.1952,-4.1936,-4.1928,-4.1952,-4.1977,-4.197,-4.1983,-4.2025,-4.2009,-4.184,-4.1815,-4.1791,-4.1773,-4.2028,-4.2028,-4.2187,-4.2189,-4.219]},{"header":{"parameterUnit":"m.s-1","parameterCategory":1,"la1":30.2991,"la2":30.254,"lo1":-89.0895,"lo2":-89.0444,"dy":0.0017,"dx":0.0017,"nx":28,"ny":28,"refTime":"2024-12-02T09:00:00:Z","depth":0,"parameterNumber":3,"parameterNumberName":"V-component_of_WINDS"},"data":[0,0,0,0,0,0,0,0,0,0,0,0,0,0,0,0,0,0,0,0,0,0,0,0,0,0,0,0,0,0,0,0,0,0,0,0,0,0,0,0,0,0,0,0,0,0,0,0,0,0,0,0,0,0,0,0,0,0,-4.6065,-4.6065,0,-4.6123,-4.6124,-4.6125,-4.6087,-4.6085,-4.6084,-4.6082,-4.6138,-4.6141,-4.6144,0,0,0,0,0,0,0,0,0,0,0,0,0,-4.5916,-4.5919,-4.6065,-4.6066,-4.6066,-4.6123,-4.6124,-4.6125,-4.6087,-4.6085,-4.6083,-4.6081,-4.6137,-4.6141,-4.6144,0,0,0,0,0,0,0,0,0,0,0,0,0,-4.5978,-4.592,-4.6065,-4.6054,-4.6054,-4.6123,-4.6124,-4.6125,-4.6088,-4.6085,-4.6083,-4.608,-4.6136,-4.614,-4.6145,-4.6226,0,0,-4.6159,-4.6161,0,0,0,0,0,0,0,0,-4.5975,-4.5983,-4.6055,-4.6055,-4.6055,-4.6095,-4.6092,-4.6159,-4.6088,-4.6075,-4.6082,-4.6079,-4.6126,-4.6131,-4.6148,-4.6229,-4.6231,-4.616,-4.6162,-4.6164,-4.6166,0,0,0,0,0,0,0,-4.597,-4.5981,-4.6088,-4.6056,-4.6056,-4.6045,-4.6051,-4.6105,-4.6114,-4.6076,-4.6073,-4.6081,-4.6125,-4.6143,-4.6149,-4.6232,-4.616,-4.6164,-4.6167,-4.6168,-4.6381,-4.6384,0,0,0,0,0,0,-4.5967,-4.5977,-4.6086,-4.609,-4.6008,-4.605,-4.6057,-4.6085,-4.6113,-4.6115,-4.6083,-4.6079,-4.6137,-4.6143,-4.615,-4.6247,-4.6164,-4.6169,-4.6172,-4.6379,-4.6382,-4.6385,0,0,0,0,0,0,-4.5964,-4.5977,-4.6084,-4.6033,-4.6046,-4.6056,-4.6087,-4.6088,-4.6106,-4.6119,-4.612,-4.61,-4.6135,-4.6144,-4.6208,-4.6248,-4.6171,-4.6175,-4.6375,-4.638,-4.6384,-4.6441,0,0,0,0,0,0,-4.596,-4.5977,-4.6009,-4.6034,-4.6048,-4.6141,-4.609,-4.6091,-4.6114,-4.6109,-4.6135,-4.6137,-4.6133,-4.6201,-4.6212,-4.6253,-4.6179,-4.6372,-4.6377,-4.6382,-4.6435,-4.6447,-4.6456,0,0,0,0,0,-4.5955,-4.6022,-4.601,-4.6024,-4.6089,-4.6144,-4.6152,-4.6148,-4.6118,-4.6149,-4.6158,-4.6136,-4.6242,-4.6208,-4.622,-4.6263,-4.6369,-4.6376,-4.6382,-4.6431,-4.6444,-4.6456,0,0,0,0,0,0,-4.6,-4.6025,-4.6013,-4.609,-4.6115,-4.6137,-4.6177,-4.6162,-4.6195,-4.6189,-4.6181,-4.6187,-4.6254,-4.6265,-4.6226,-4.6343,-4.6301,-4.631,-4.6333,-4.6347,-4.6357,-4.6353,-4.6183,0,0,0,0,0,-4.6019,-4.6062,-4.6081,-4.6148,-4.6161,-4.6167,-4.6191,-4.6185,-4.621,-4.6221,-4.6234,-4.6258,-4.6296,-4.6322,-4.6358,-4.6437,-4.6441,-4.6472,-4.6483,-4.6491,-4.6499,-4.6541,-4.6555,-4.6406,-4.6406,-4.6406,0,0,-4.6058,-4.6077,-4.6105,-4.6157,-4.6176,-4.622,-4.6176,-4.6225,-4.6257,-4.6227,-4.6289,-4.6299,-4.6325,-4.6397,-4.6429,-4.6408,-4.6541,-4.6499,-4.6506,-4.6509,-4.6549,-4.6563,-4.6575,-4.6411,-4.641,-4.6409,0,0,-4.6152,-4.6172,-4.6229,-4.6249,-4.6278,-4.6282,-4.6296,-4.632,-4.6326,-4.6388,-4.6367,-4.6404,-4.6471,-4.649,-4.6509,-4.661,-4.6592,-4.6622,-4.6677,-4.6717,-4.6729,-4.6739,-4.6775,-4.6788,-4.663,-4.663,-4.663,0,-4.6197,-4.6264,-4.6259,-4.631,-4.6333,-4.6309,-4.6366,-4.6385,-4.6425,-4.6441,-4.6417,-4.65,-4.6516,-4.6592,-4.6616,-4.6633,-4.6647,-4.6619,-4.6728,-4.6738,-4.6748,-4.6782,-4.6795,-4.6634,-4.6633,-4.6633,-4.6633,0,-4.6318,-4.6364,-4.6407,-4.6447,-4.6475,-4.6528,-4.653,-4.6558,-4.655,-4.6556,-4.6618,-4.6636,-4.6676,-4.6693,-4.6685,-4.6767,-4.6753,-4.6729,-4.6686,-4.6765,-4.6797,-4.681,-4.6639,-4.6638,-4.6637,-4.6636,0,0,-4.6442,-4.6479,-4.6495,-4.6512,-4.6543,-4.6578,-4.663,-4.667,-4.6694,-4.6722,-4.6764,-4.6821,-4.6799,-4.682,-4.6814,-4.685,-4.6928,-4.6821,-4.6821,-4.684,-4.7019,-4.7037,-4.7052,-4.6916,-4.6918,-4.692,-4.7017,0,-4.6538,-4.663,-4.6627,-4.6712,-4.6755,-4.6733,-4.6777,-4.68,-4.6807,-4.6842,-4.6848,-4.6889,-4.6857,-4.6869,-4.6904,-4.6911,-4.6964,-4.6904,-4.6954,-4.6956,-4.6948,-4.7069,-4.7089,-4.7179,-4.7029,-4.7031,-4.7033,0,-4.6663,-4.6696,-4.6786,-4.681,-4.6828,-4.6869,-4.6904,-4.6939,-4.6964,-4.6966,-4.699,-4.6978,-4.7029,-4.6985,-4.7054,-4.7014,-4.7034,-4.704,-4.7044,-4.7048,-4.6999,-4.7076,-4.7207,-4.7221,-4.7052,-4.7051,-4.7049,0,-4.6744,-4.6811,-4.6874,-4.689,-4.6919,-4.6948,-4.6962,-4.6984,-4.7008,-4.7039,-4.7054,-4.709,-4.711,-4.7137,-4.7134,-4.7103,-4.7205,-4.7161,-4.7207,-4.7207,-4.7229,-4.7228,-4.7365,-4.7243,-4.7242,-4.7242,-4.7242,0,-4.6852,-4.6908,-4.6911,-4.6949,-4.7011,-4.7006,-4.7066,-4.7076,-4.7096,-4.7135,-4.7117,-4.7154,-4.7148,-4.7184,-4.7182,-4.724,-4.7249,-4.7251,-4.725,-4.7253,-4.7252,-4.7266,-4.7259,-4.7246,-4.7245,-4.7244,-4.7244,0,-4.6953,-4.6958,-4.7025,-4.7047,-4.7054,-4.7099,-4.7117,-4.7153,-4.7158,-4.7207,-4.7218,-4.7225,-4.7267,-4.7267,-4.7314,-4.7313,-4.7383,-4.7375,-4.7375,-4.7374,-4.742,-4.7415,-4.757,-4.759,-4.7455,-4.7456,-4.7457,0,-4.7022,-4.7065,-4.7092,-4.7118,-4.7133,-4.7174,-4.7199,-4.7195,-4.7221,-4.7253,-4.7284,-4.7325,-4.7357,-4.7424,-4.7432,-4.7468,-4.746,-4.7512,-4.7466,-4.7467,-4.7461,-4.7458,-4.7462,-4.7521,-4.7523,-4.7524,-4.7525,0,-4.7143,-4.7143,-4.718,-4.7218,-4.7248,-4.7277,-4.7304,-4.7326,-4.7325,-4.7355,-4.7398,-4.7423,-4.7471,-4.7511,-4.7546,-4.7558,-4.7541,-4.754,-4.7552,-4.7556,-4.7554,-4.7555,-4.74,-4.7536,-4.7535,-4.7534,-4.7534,-4.7533,-4.723,-4.7267,-4.7292,-4.7334,-4.7354,-4.7379,-4.7414,-4.7423,-4.746,-4.75,-4.7495,-4.7543,-4.7565,-4.761,-4.7625,-4.7662,-4.7643,-4.7662,-4.7666,-4.7671,-4.7676,-4.7549,-4.7668,-4.7667,-4.7667,-4.7667,-4.7667,0,-4.735,-4.7365,-4.7403,-4.7442,-4.7475,-4.7457,-4.7486,-4.7514,-4.7557,-4.758,-4.7612,-4.7661,-4.77,-4.7711,-4.7748,-4.7775,-4.7768,-4.7784,-4.7782,-4.7785,-4.769,-4.7676,-4.7789,-4.7789,-4.7789,-4.7789,-4.7789,-4.7789,-4.7416,-4.7477,-4.748,-4.7551,-4.7565,-4.7613,-4.7631,-4.7653,-4.7672,-4.7728,-4.776,-4.7768,-4.7786,-4.7824,-4.7858,-4.786,-4.7875,-4.7894,-4.7893,-4.7804,-4.7792,-4.778,-4.7767,-4.7897,-4.7898,-4.7985,-4.7986,-4.7987]}]]